NOAA 16 DEB, 41362

Orbit data source: Space-Track

NOAA 16 DEB, 41362 is space debris in SSO originally from a launch on Thu, 21 Sep 2000 UTC launched from the Air Force Western Test Range (AFWTR). Debris objects in space refer to the collection of defunct objects orbiting the Earth. Examples of debris include non-operational satellites, rocket bodies, and fragments generated from explosions, collisions, or faulty payload assembly.

Loading next visibility...
Identifier
41362, 2000-055JF
Orbit
SSO
Country
Flag of USUS
Related business
Manufacturer
Unknown
Mission
Spacecraft
Bus & Motor
Unknown
Mass
Unknown
Launch date (UTC)
2000-09-21 (26 years ago)
Launch vehicle
Unknown
Launch site
Air Force Western Test Range (AFWTR)
Object type
Payload
Rocket body
Debris
Shape & HBR
Unknown shape, 0.1 m
Radar Cross Section
Small (<0.1 m²)

Expand to show TLE details & history
Last TLE update: 1 day ago

TLE from 1 day ago
0 NOAA 16 DEB
1 41362U 00055JF  26106.57011549  .00004660  00000-0  97006-3 0  9994
2 41362  98.9564 326.6671 0029182 198.9142 161.0975 14.60299507533863
Epoch: 2026-04-16T13:40Z
TLE epoch observation values (Epoch: 2026-04-16T13:40:57.978Z)
Latitude
0.00006°
Longitude
-83.29025°
Altitude
714.699 km
Speed
7.488 km/s
True Right ascension
21h 46m 40s
True Declination
0° 00' 00"
Sunlit
Object was in daylight at epoch
Visualization orbit readout
Latitude
Unknown
Longitude
Unknown
Altitude
Unknown
Speed
Unknown
Apparent Right ascension
Unknown
Apparent Declination
Unknown
Sunlit
N/A
Visualization observer readout
Local Sidereal Time
01:10:47
Azimuth
Unknown
Elevation
Unknown
Doppler factor
Unknown
Orbital elements
Apogee altitude
709.948 km
Perigee altitude
668.7 km
Semi-major axis
7,067.461 km
Eccentricity
0.00292
Inclination
98.9564°
RAAN
326.6671°
Arg. of periapsis
198.9142°
True anomaly
161.20546°
Mean anomaly
161.0975°
Eccentric anomaly
161.15152°
Mean motion
3.65299 °/min
Orbital period
98.55 mins
BSTAR
0.00097006
Loading maneuver chart data...
Computing Atmospheric mass density...
Loading historical data...
Loading historical data...
Loading historical data...
Loading historical data...
Loading historical data...
Loading historical data...
Loading historical data...

Documentation

Showing up to 5 results
|